If you wish to contribute or participate in the discussions about articles you are invited to join SKYbrary as a registered user

 Actions

Agen-La Garenne Airport

From SKYbrary Wiki

LFBA
Airport
ICAO: LFBA – IATA: AGF
Summary
Name Agen-La Garenne Airport
Region Europe
Territory France FR.gif
Location Agen, Aquitaine
Serving Agen
Elevation 62.179 m
204 ft
204 ft62.179 m
Type medium airport
Coordinates 44° 10' 28.9956", 0° 35' 26.0016"
Runways
Designator Length Width Surface ROPS
11/29 2165 m7,103.018 ft 30 m98.425 ft ASP /


METAR
Observation LFBA 260830Z AUTO 11005KT 080V140 CAVOK 18/12 Q1029 NOSIG
Station Agen
Date/Time 26 September 2018 08:30:00
Wind direction 110°
Wind speed 05 kts
Lowest cloud amount clouds and visibility OK
Temperature 18°C
Dew point 12°C
Humidity 67%
QNH 1029 hPa
Weather condition n/a

Maps

Terrain

Loading map...

Airport Layout

Loading map...


Accidents & Serious Incidents at or in vicinity of LFBA

None on SKYbrary